Location: Unspecified
(0.0000°N, 0.0000°E)
Time: 15:44:07
(UTC+02:00)

GPS 2-15 Rocket1 - Visible Passes

Search period start: 26 May 2015 00:00
Search period end: 05 June 2015 00:00
Orbit: 626 x 678 km, 19.8° (Epoch: 25 May)

Date Brightness Start Highest point End Pass type
(mag) Time Alt. Az. Time Alt. Az. Time Alt. Az.
26 May 4.7 21:20:48 10° NW 21:24:32 23° NNE 21:25:58 20° NE visible
27 May 3.9 21:47:07 10° NW 21:51:08 41° N 21:51:08 41° N visible
28 May 4.7 20:30:12 10° NW 20:34:09 26° NNE 20:38:05 10° ENE visible
28 May 4.7 22:13:47 10° WNW 22:16:19 32° WNW 22:16:19 32° WNW visible
29 May 5.4 07:00:25 10° SSW 07:02:52 14° SSE 07:05:24 10° SE visible
29 May 3.7 20:56:34 10° NW 21:01:09 48° NNE 21:03:50 22° E visible
29 May 5.9 22:40:52 10° W 22:41:31 14° W 22:41:31 14° W visible
30 May 4.9 07:26:16 10° SSW 07:30:00 23° SSE 07:33:51 10° ESE visible
30 May 3.0 21:23:19 10° WNW 21:28:04 86° SSW 21:29:03 56° ESE visible
31 May 5.3 06:12:42 15° SSE 06:12:42 15° SSE 06:15:11 10° SE visible
31 May 4.0 21:50:28 10° W 21:54:16 40° SW 21:54:16 40° SW visible
01 Jun 4.7 06:37:56 20° SSW 06:39:35 24° SSE 06:43:30 10° ESE visible
01 Jun 3.2 20:32:49 10° WNW 20:37:38 77° SSW 20:41:48 13° ESE visible
01 Jun 5.5 22:18:08 10° WSW 22:19:29 16° WSW 22:19:29 16° WSW visible
02 Jun 3.8 07:03:09 16° SW 07:06:35 43° SSE 07:11:11 10° E visible
02 Jun 4.0 21:00:04 10° W 21:04:34 39° SSW 21:07:02 22° SE visible
03 Jun 5.0 05:50:42 22° SE 05:50:42 22° SE 05:53:11 10° ESE visible
03 Jun 3.2 07:28:45 10° WSW 07:33:31 85° SSE 07:38:21 10° ENE visible
03 Jun 4.7 21:27:49 10° WSW 21:31:35 22° SSW 21:32:15 22° S visible
04 Jun 3.5 06:15:54 48° S 06:16:09 48° SSE 06:20:45 10° E visible
04 Jun 5.5 21:56:17 10° SW 21:57:28 13° SSW 21:57:28 13° SSW visible
